| time (UTC) | temp F | wind direction | speed MPH | gust MPH | rain 1hr in | rain 24hr in | rain mn in | humidity % | barometer mb |
| 20260903180006 | 75 | 87 | 1.0 | 5.0 | 0.00 | 0.00 | 0.00 | 55 | 1020.8 |
| 20260903175005 | 76 | 81 | 2.0 | 4.0 | 0.00 | 0.00 | 0.00 | 54 | 1020.8 |
| 20260903174506 | 76 | 133 | 0.0 | 4.0 | 0.00 | 0.00 | 0.00 | 54 | 1020.8 |
| 20260903174005 | 76 | 40 | 2.0 | 3.0 | 0.00 | 0.00 | 0.00 | 53 | 1019.8 |
| 20260903173506 | 77 | 103 | 2.0 | 4.0 | 0.00 | 0.00 | 0.00 | 51 | 1019.8 |
| 20260903173005 | 77 | 78 | 2.0 | 4.0 | 0.00 | 0.00 | 0.00 | 50 | 1019.8 |
| 20260903172506 | 78 | 71 | 3.0 | 4.0 | 0.00 | 0.00 | 0.00 | 50 | 1020.8 |
| 20260903172005 | 78 | 82 | 2.0 | 3.0 | 0.00 | 0.00 | 0.00 | 50 | 1020.8 |
| 20260903171006 | 80 | 270 | 0.0 | 2.0 | 0.00 | 0.00 | 0.00 | 49 | 1019.8 |
| 20260903170505 | 80 | 261 | 0.0 | 2.0 | 0.00 | 0.00 | 0.00 | 48 | 1019.8 |
| 20260903170005 | 80 | 279 | 2.0 | 2.0 | 0.00 | 0.00 | 0.00 | 48 | 1019.8 |
| 20260903165506 | 81 | 355 | 0.0 | 2.0 | 0.00 | 0.00 | 0.00 | 47 | 1019.8 |
| 20260903165005 | 81 | 46 | 0.0 | 2.0 | 0.00 | 0.00 | 0.00 | 47 | 1019.8 |
| 20260903164505 | 81 | 45 | 1.0 | 2.0 | 0.00 | 0.00 | 0.00 | 46 | 1019.8 |
| 20260903164006 | 82 | 18 | 0.0 | 2.0 | 0.00 | 0.00 | 0.00 | 46 | 1019.8 |
| 20260903163505 | 82 | 4 | 0.0 | 2.0 | 0.00 | 0.00 | 0.00 | 46 | 1019.8 |
| 20260903163005 | 82 | 4 | 1.0 | 3.0 | 0.00 | 0.00 | 0.00 | 45 | 1019.8 |
| 20260903162506 | 82 | 1 | 1.0 | 3.0 | 0.00 | 0.00 | 0.00 | 44 | 1019.8 |
| 20260903162005 | 83 | 41 | 0.0 | 2.0 | 0.00 | 0.00 | 0.00 | 44 | 1019.8 |
| 20260903161506 | 83 | 51 | 2.0 | 3.0 | 0.00 | 0.00 | 0.00 | 44 | 1019.8 |
| 20260903161005 | 83 | 51 | 1.0 | 3.0 | 0.00 | 0.00 | 0.00 | 43 | 1018.8 |
| 20260903160505 | 83 | 49 | 2.0 | 2.0 | 0.00 | 0.00 | 0.00 | 42 | 1018.8 |
| 20260903155505 | 84 | 145 | 1.0 | 2.0 | 0.00 | 0.00 | 0.00 | 43 | 1018.8 |
| 20260903154005 | 86 | 198 | 2.0 | 2.0 | 0.00 | 0.00 | 0.00 | 37 | 1019.8 |
| 20260903153505 | 86 | 197 | 0.0 | 2.0 | 0.00 | 0.00 | 0.00 | 36 | 1019.8 |
| 20260903153006 | 87 | 204 | 2.0 | 3.0 | 0.00 | 0.00 | 0.00 | 35 | 1019.8 |
| 20260903152505 | 87 | 231 | 2.0 | 5.0 | 0.00 | 0.00 | 0.00 | 35 | 1019.8 |
| 20260903152005 | 87 | 240 | 2.0 | 5.0 | 0.00 | 0.00 | 0.00 | 34 | 1019.8 |
| 20260903151505 | 88 | 239 | 2.0 | 4.0 | 0.00 | 0.00 | 0.00 | 34 | 1019.8 |
| 20260903151005 | 88 | 253 | 2.0 | 4.0 | 0.00 | 0.00 | 0.00 | 33 | 1019.8 |
| 20260903150505 | 88 | 246 | 2.0 | 5.0 | 0.00 | 0.00 | 0.00 | 33 | 1019.8 |
| 20260903150005 | 88 | 238 | 3.0 | 5.0 | 0.00 | 0.00 | 0.00 | 32 | 1019.8 |
| 20260903145005 | 88 | 253 | 3.0 | 6.0 | 0.00 | 0.00 | 0.00 | 32 | 1019.8 |
| 20260903144506 | 88 | 231 | 4.0 | 6.0 | 0.00 | 0.00 | 0.00 | 31 | 1019.8 |
| 20260903143505 | 88 | 197 | 2.0 | 7.0 | 0.00 | 0.00 | 0.00 | 31 | 1019.8 |
| 20260903142505 | 89 | 190 | 4.0 | 7.0 | 0.00 | 0.00 | 0.00 | 30 | 1018.8 |
| 20260903142006 | 89 | 270 | 4.0 | 6.0 | 0.00 | 0.00 | 0.00 | 32 | 1018.8 |
| 20260903140505 | 89 | 285 | 2.0 | 4.0 | 0.00 | 0.00 | 0.00 | 30 | 1018.8 |
| 20260903140005 | 89 | 262 | 2.0 | 5.0 | 0.00 | 0.00 | 0.00 | 30 | 1018.8 |
| 20260903133505 | 89 | 297 | 2.0 | 6.0 | 0.00 | 0.00 | 0.00 | 30 | 1019.8 |
| 20260903133005 | 89 | 288 | 1.0 | 7.0 | 0.00 | 0.00 | 0.00 | 30 | 1019.8 |
| 20260903132505 | 90 | 257 | 4.0 | 7.0 | 0.00 | 0.00 | 0.00 | 30 | 1019.8 |
| 20260903132005 | 90 | 262 | 2.0 | 6.0 | 0.00 | 0.00 | 0.00 | 30 | 1019.8 |
| 20260903131505 | 90 | 294 | 4.0 | 6.0 | 0.00 | 0.00 | 0.00 | 30 | 1019.8 |
| 20260903130005 | 90 | 256 | 2.0 | 5.0 | 0.00 | 0.00 | 0.00 | 29 | 1018.8 |
| 20260903125005 | 91 | 288 | 2.0 | 6.0 | 0.00 | 0.00 | 0.00 | 30 | 1019.8 |
| 20260903124005 | 91 | 231 | 4.0 | 5.0 | 0.00 | 0.00 | 0.00 | 31 | 1019.8 |
| 20260903123505 | 91 | 174 | 2.0 | 5.0 | 0.00 | 0.00 | 0.00 | 30 | 1019.8 |
| 20260903123005 | 91 | 152 | 2.0 | 5.0 | 0.00 | 0.00 | 0.00 | 30 | 1019.8 |
| 20260903122006 | 91 | 224 | 1.0 | 4.0 | 0.00 | 0.00 | 0.00 | 31 | 1020.8 |
| 20260903121505 | 91 | 140 | 2.0 | 4.0 | 0.00 | 0.00 | 0.00 | 32 | 1020.8 |
| 20260903121005 | 91 | 142 | 3.0 | 4.0 | 0.00 | 0.00 | 0.00 | 31 | 1020.8 |
| 20260903120505 | 91 | 133 | 3.0 | 5.0 | 0.00 | 0.00 | 0.00 | 31 | 1020.8 |
| 20260903120005 | 91 | 109 | 4.0 | 5.0 | 0.00 | 0.00 | 0.00 | 31 | 1020.8 |
| 20260903115006 | 90 | 133 | 3.0 | 4.0 | 0.00 | 0.00 | 0.00 | 30 | 1020.8 |
| 20260903114505 | 90 | 169 | 2.0 | 5.0 | 0.00 | 0.00 | 0.00 | 30 | 1020.8 |
| 20260903114006 | 90 | 171 | 2.0 | 7.0 | 0.00 | 0.00 | 0.00 | 30 | 1020.8 |
| 20260903113505 | 90 | 142 | 4.0 | 7.0 | 0.00 | 0.00 | 0.00 | 30 | 1020.8 |
| 20260903113005 | 90 | 77 | 2.0 | 6.0 | 0.00 | 0.00 | 0.00 | 30 | 1020.8 |
| 20260903112505 | 90 | 78 | 4.0 | 6.0 | 0.00 | 0.00 | 0.00 | 30 | 1020.8 |
| 20260903112005 | 90 | 76 | 3.0 | 6.0 | 0.00 | 0.00 | 0.00 | 31 | 1020.8 |
| 20260903111505 | 90 | 74 | 5.0 | 8.0 | 0.00 | 0.00 | 0.00 | 30 | 1020.8 |
| 20260903111005 | 90 | 87 | 2.0 | 8.0 | 0.00 | 0.00 | 0.00 | 30 | 1020.8 |
| 20260903110505 | 90 | 133 | 2.0 | 4.0 | 0.00 | 0.00 | 0.00 | 32 | 1020.8 |
| 20260903110005 | 90 | 151 | 2.0 | 4.0 | 0.00 | 0.00 | 0.00 | 32 | 1020.8 |
| 20260903105505 | 90 | 187 | 2.0 | 4.0 | 0.00 | 0.00 | 0.00 | 33 | 1020.8 |
| 20260903105005 | 89 | 220 | 2.0 | 4.0 | 0.00 | 0.00 | 0.00 | 34 | 1020.8 |
| 20260903104505 | 89 | 183 | 3.0 | 4.0 | 0.00 | 0.00 | 0.00 | 33 | 1020.8 |
| 20260903104005 | 89 | 117 | 2.0 | 5.0 | 0.00 | 0.00 | 0.00 | 33 | 1020.8 |
| 20260903102505 | 88 | 86 | 3.0 | 5.0 | 0.00 | 0.00 | 0.00 | 35 | 1021.8 |
| 20260903102005 | 88 | 92 | 4.0 | 4.0 | 0.00 | 0.00 | 0.00 | 35 | 1021.8 |
| 20260903101505 | 88 | 75 | 2.0 | 6.0 | 0.00 | 0.00 | 0.00 | 35 | 1021.8 |
| 20260903101005 | 87 | 64 | 2.0 | 6.0 | 0.00 | 0.00 | 0.00 | 36 | 1021.8 |
| 20260903100005 | 87 | 65 | 6.0 | 8.0 | 0.00 | 0.00 | 0.00 | 37 | 1021.8 |
| 20260903095505 | 87 | 55 | 3.0 | 8.0 | 0.00 | 0.00 | 0.00 | 38 | 1021.8 |
| 20260903094505 | 86 | 59 | 2.0 | 6.0 | 0.00 | 0.00 | 0.00 | 39 | 1021.8 |
| 20260903094005 | 86 | 62 | 3.0 | 7.0 | 0.00 | 0.00 | 0.00 | 40 | 1021.8 |
| 20260903093505 | 85 | 65 | 4.0 | 7.0 | 0.00 | 0.00 | 0.00 | 41 | 1021.8 |
| 20260903092505 | 85 | 117 | 2.0 | 9.0 | 0.00 | 0.00 | 0.00 | 45 | 1021.8 |
| 20260903092005 | 85 | 122 | 4.0 | 9.0 | 0.00 | 0.00 | 0.00 | 46 | 1021.8 |
| 20260903091505 | 84 | 123 | 4.0 | 9.0 | 0.00 | 0.00 | 0.00 | 47 | 1021.8 |
| 20260903091006 | 84 | 121 | 4.0 | 9.0 | 0.00 | 0.00 | 0.00 | 48 | 1021.8 |
| 20260903090505 | 83 | 110 | 5.0 | 8.0 | 0.00 | 0.00 | 0.00 | 48 | 1021.8 |
| 20260903090005 | 83 | 108 | 6.0 | 9.0 | 0.00 | 0.00 | 0.00 | 49 | 1021.8 |
| 20260903085505 | 82 | 114 | 6.0 | 9.0 | 0.00 | 0.00 | 0.00 | 50 | 1021.8 |
| 20260903085005 | 82 | 114 | 4.0 | 7.0 | 0.00 | 0.00 | 0.00 | 50 | 1021.8 |
| 20260903084506 | 81 | 115 | 4.0 | 8.0 | 0.00 | 0.00 | 0.00 | 51 | 1021.8 |
| 20260903083505 | 81 | 124 | 7.0 | 9.0 | 0.00 | 0.00 | 0.00 | 51 | 1021.8 |
| 20260903082505 | 80 | 122 | 6.0 | 9.0 | 0.00 | 0.00 | 0.00 | 54 | 1021.8 |
| 20260903082005 | 79 | 120 | 5.0 | 8.0 | 0.00 | 0.00 | 0.00 | 54 | 1021.8 |
| 20260903081505 | 79 | 120 | 5.0 | 9.0 | 0.00 | 0.00 | 0.00 | 54 | 1021.8 |
| 20260903081005 | 78 | 130 | 4.0 | 9.0 | 0.00 | 0.00 | 0.00 | 55 | 1021.8 |
| 20260903080505 | 78 | 129 | 6.0 | 8.0 | 0.00 | 0.00 | 0.00 | 55 | 1021.8 |
| 20260903080005 | 77 | 112 | 5.0 | 6.0 | 0.00 | 0.00 | 0.00 | 56 | 1021.8 |
| 20260903075504 | 77 | 115 | 4.0 | 6.0 | 0.00 | 0.00 | 0.00 | 57 | 1021.8 |
| 20260903075005 | 76 | 124 | 4.0 | 8.0 | 0.00 | 0.00 | 0.00 | 58 | 1021.8 |
| 20260903074005 | 75 | 122 | 5.0 | 8.0 | 0.00 | 0.00 | 0.00 | 58 | 1021.8 |
| 20260903073505 | 75 | 121 | 3.0 | 8.0 | 0.00 | 0.00 | 0.00 | 60 | 1021.8 |
| 20260903073004 | 74 | 125 | 5.0 | 9.0 | 0.00 | 0.00 | 0.00 | 60 | 1021.8 |
| 20260903072005 | 74 | 120 | 5.0 | 11.0 | 0.00 | 0.00 | 0.00 | 60 | 1021.8 |
| 20260903071505 | 73 | 106 | 5.0 | 9.0 | 0.00 | 0.00 | 0.00 | 61 | 1021.8 |
| 20260903070005 | 72 | 122 | 6.0 | 9.0 | 0.00 | 0.00 | 0.00 | 63 | 1021.8 |
| 20260903065505 | 71 | 126 | 7.0 | 9.0 | 0.00 | 0.00 | 0.00 | 65 | 1021.8 |
| 20260903065005 | 71 | 131 | 5.0 | 8.0 | 0.00 | 0.00 | 0.00 | 66 | 1021.8 |
| 20260903064505 | 70 | 122 | 4.0 | 7.0 | 0.00 | 0.00 | 0.00 | 67 | 1021.8 |
| 20260903064005 | 70 | 122 | 3.0 | 7.0 | 0.00 | 0.00 | 0.00 | 67 | 1021.8 |
| 20260903063505 | 69 | 132 | 2.0 | 7.0 | 0.00 | 0.00 | 0.00 | 68 | 1021.8 |
| 20260903062005 | 68 | 130 | 5.0 | 8.0 | 0.00 | 0.00 | 0.00 | 70 | 1021.8 |
| 20260903061005 | 67 | 116 | 4.0 | 7.0 | 0.00 | 0.00 | 0.00 | 72 | 1021.8 |
| 20260903055505 | 66 | 99 | 0.0 | 4.0 | 0.00 | 0.00 | 0.00 | 74 | 1021.8 |
| 20260903055005 | 66 | 82 | 2.0 | 5.0 | 0.00 | 0.00 | 0.00 | 73 | 1021.8 |
| 20260903054505 | 65 | 82 | 3.0 | 5.0 | 0.00 | 0.00 | 0.00 | 73 | 1021.8 |
| 20260903054005 | 65 | 100 | 2.0 | 6.0 | 0.00 | 0.00 | 0.00 | 73 | 1021.8 |
| 20260903053504 | 65 | 112 | 3.0 | 6.0 | 0.00 | 0.00 | 0.00 | 73 | 1021.8 |
| 20260903053005 | 65 | 132 | 1.0 | 6.0 | 0.00 | 0.00 | 0.00 | 73 | 1021.8 |
| 20260903052005 | 65 | 90 | 2.0 | 6.0 | 0.00 | 0.00 | 0.00 | 73 | 1021.8 |
| 20260903051505 | 65 | 112 | 3.0 | 6.0 | 0.00 | 0.00 | 0.00 | 74 | 1021.8 |
| 20260903050505 | 65 | 127 | 2.0 | 5.0 | 0.00 | 0.00 | 0.00 | 74 | 1021.8 |
| 20260903050004 | 64 | 119 | 2.0 | 6.0 | 0.00 | 0.00 | 0.00 | 74 | 1021.8 |
| 20260903045505 | 64 | 115 | 5.0 | 6.0 | 0.00 | 0.00 | 0.00 | 75 | 1021.8 |
| 20260903044505 | 64 | 136 | 1.0 | 8.0 | 0.00 | 0.00 | 0.00 | 74 | 1021.8 |
| 20260903044005 | 64 | 129 | 5.0 | 8.0 | 0.00 | 0.00 | 0.00 | 74 | 1021.8 |
| 20260903043004 | 64 | 209 | 1.0 | 4.0 | 0.00 | 0.00 | 0.00 | 74 | 1021.8 |
| 20260903042505 | 64 | 256 | 1.0 | 3.0 | 0.00 | 0.00 | 0.00 | 73 | 1021.8 |
| 20260903042004 | 64 | 238 | 1.0 | 5.0 | 0.00 | 0.00 | 0.00 | 71 | 1021.8 |
| 20260903041505 | 64 | 109 | 1.0 | 5.0 | 0.00 | 0.00 | 0.00 | 71 | 1021.8 |
| 20260903041005 | 65 | 69 | 2.0 | 4.0 | 0.00 | 0.00 | 0.00 | 71 | 1021.8 |
| 20260903040504 | 65 | 90 | 1.0 | 4.0 | 0.00 | 0.00 | 0.00 | 70 | 1021.8 |
| 20260903040005 | 65 | 76 | 2.0 | 4.0 | 0.00 | 0.00 | 0.00 | 70 | 1021.8 |
| 20260903035505 | 65 | 26 | 2.0 | 3.0 | 0.00 | 0.00 | 0.00 | 69 | 1021.8 |
| 20260903035005 | 65 | 38 | 0.0 | 3.0 | 0.00 | 0.00 | 0.00 | 69 | 1021.8 |
| 20260903034504 | 65 | 10 | 0.0 | 3.0 | 0.00 | 0.00 | 0.00 | 69 | 1021.8 |
| 20260903034005 | 65 | 49 | 2.0 | 3.0 | 0.00 | 0.00 | 0.00 | 69 | 1021.8 |
| 20260903033504 | 65 | 62 | 1.0 | 4.0 | 0.00 | 0.00 | 0.00 | 69 | 1021.8 |
| 20260903033004 | 66 | 70 | 2.0 | 4.0 | 0.00 | 0.00 | 0.00 | 68 | 1021.8 |
| 20260903032505 | 66 | 81 | 1.0 | 4.0 | 0.00 | 0.00 | 0.00 | 68 | 1021.8 |
| 20260903032005 | 66 | 71 | 3.0 | 4.0 | 0.00 | 0.00 | 0.00 | 67 | 1021.8 |
| 20260903031505 | 66 | 58 | 2.0 | 4.0 | 0.00 | 0.00 | 0.00 | 66 | 1021.8 |
| 20260903031005 | 66 | 63 | 2.0 | 4.0 | 0.00 | 0.00 | 0.00 | 66 | 1021.8 |
| 20260903030505 | 67 | 47 | 2.0 | 3.0 | 0.00 | 0.00 | 0.00 | 65 | 1021.8 |
| 20260903030005 | 67 | 33 | 2.0 | 4.0 | 0.00 | 0.00 | 0.00 | 65 | 1021.8 |
| 20260903025505 | 67 | 81 | 1.0 | 5.0 | 0.00 | 0.00 | 0.00 | 64 | 1021.8 |
| 20260903025004 | 67 | 110 | 2.0 | 5.0 | 0.00 | 0.00 | 0.00 | 64 | 1021.8 |
| 20260903024505 | 67 | 108 | 2.0 | 8.0 | 0.00 | 0.00 | 0.00 | 64 | 1021.8 |
| 20260903024005 | 68 | 103 | 2.0 | 8.0 | 0.00 | 0.00 | 0.00 | 63 | 1021.8 |
| 20260903023505 | 68 | 107 | 3.0 | 6.0 | 0.00 | 0.00 | 0.00 | 63 | 1021.8 |
| 20260903023005 | 68 | 109 | 4.0 | 7.0 | 0.00 | 0.00 | 0.00 | 62 | 1021.8 |
| 20260903022505 | 68 | 114 | 3.0 | 7.0 | 0.00 | 0.00 | 0.00 | 61 | 1021.8 |
| 20260903021505 | 68 | 85 | 3.0 | 6.0 | 0.00 | 0.00 | 0.00 | 61 | 1021.8 |
| 20260903020505 | 69 | 96 | 4.0 | 9.0 | 0.00 | 0.00 | 0.00 | 61 | 1021.8 |
| 20260903020005 | 69 | 94 | 4.0 | 6.0 | 0.00 | 0.00 | 0.00 | 60 | 1021.8 |
| 20260903015505 | 69 | 97 | 3.0 | 6.0 | 0.00 | 0.00 | 0.00 | 60 | 1021.8 |
| 20260903015005 | 69 | 94 | 3.0 | 6.0 | 0.00 | 0.00 | 0.00 | 60 | 1021.8 |
| 20260903014505 | 69 | 101 | 4.0 | 8.0 | 0.00 | 0.00 | 0.00 | 60 | 1021.8 |
| 20260903014005 | 69 | 102 | 3.0 | 8.0 | 0.00 | 0.00 | 0.00 | 59 | 1021.8 |
| 20260903013505 | 69 | 102 | 3.0 | 6.0 | 0.00 | 0.00 | 0.00 | 59 | 1021.8 |
| 20260903012505 | 70 | 104 | 4.0 | 9.0 | 0.00 | 0.00 | 0.00 | 59 | 1021.8 |
| 20260903011005 | 71 | 98 | 4.0 | 12.0 | 0.00 | 0.00 | 0.00 | 57 | 1021.8 |
| 20260903010005 | 71 | 103 | 5.0 | 9.0 | 0.00 | 0.00 | 0.00 | 56 | 1021.8 |
| 20260903005505 | 71 | 93 | 6.0 | 11.0 | 0.00 | 0.00 | 0.00 | 56 | 1021.8 |
| 20260903005004 | 71 | 90 | 5.0 | 11.0 | 0.00 | 0.00 | 0.00 | 56 | 1021.8 |
| 20260903004005 | 71 | 93 | 8.0 | 12.0 | 0.00 | 0.00 | 0.00 | 55 | 1021.8 |
| 20260903003004 | 72 | 86 | 7.0 | 11.0 | 0.00 | 0.00 | 0.00 | 55 | 1021.8 |
| 20260903002505 | 72 | 79 | 7.0 | 13.0 | 0.00 | 0.00 | 0.00 | 55 | 1021.8 |
| 20260903002004 | 71 | 83 | 7.0 | 13.0 | 0.00 | 0.00 | 0.00 | 54 | 1021.8 |
| 20260903001505 | 71 | 95 | 5.0 | 12.0 | 0.00 | 0.00 | 0.00 | 55 | 1021.8 |
| 20260903001005 | 71 | 102 | 8.0 | 12.0 | 0.00 | 0.00 | 0.00 | 55 | 1020.8 |
| 20260903000505 | 71 | 106 | 6.0 | 10.0 | 0.00 | 0.00 | 0.00 | 55 | 1020.8 |
| 20260903000004 | 72 | 111 | 7.0 | 9.0 | 0.00 | 0.00 | 0.00 | 54 | 1020.8 |
| 20260902235505 | 72 | 107 | 6.0 | 9.0 | 0.00 | 0.00 | 0.00 | 53 | 1020.8 |
| 20260902235005 | 73 | 100 | 5.0 | 9.0 | 0.00 | 0.00 | 0.00 | 52 | 1020.8 |
| 20260902234504 | 74 | 103 | 6.0 | 9.0 | 0.00 | 0.00 | 0.00 | 51 | 1020.8 |
| 20260902233004 | 74 | 42 | 7.0 | 17.0 | 0.00 | 0.00 | 0.00 | 50 | 1020.8 |
| 20260902232504 | 73 | 43 | 7.0 | 13.0 | 0.00 | 0.00 | 0.00 | 51 | 1020.8 |
| 20260902232005 | 72 | 42 | 6.0 | 9.0 | 0.00 | 0.00 | 0.00 | 52 | 1020.8 |
| 20260902231504 | 73 | 195 | 3.0 | 6.0 | 0.00 | 0.00 | 0.00 | 53 | 1020.8 |
| 20260902231005 | 73 | 157 | 4.0 | 6.0 | 0.00 | 0.00 | 0.00 | 53 | 1020.8 |
| 20260902230504 | 73 | 113 | 2.0 | 6.0 | 0.00 | 0.00 | 0.00 | 54 | 1020.8 |
| 20260902230005 | 73 | 97 | 4.0 | 6.0 | 0.00 | 0.00 | 0.00 | 53 | 1020.8 |
| 20260902225005 | 74 | 111 | 3.0 | 7.0 | 0.00 | 0.00 | 0.00 | 51 | 1020.8 |
| 20260902224504 | 74 | 120 | 3.0 | 6.0 | 0.00 | 0.00 | 0.00 | 50 | 1020.8 |
| 20260902224005 | 75 | 119 | 4.0 | 6.0 | 0.00 | 0.00 | 0.00 | 51 | 1020.8 |
| 20260902223504 | 75 | 128 | 3.0 | 6.0 | 0.00 | 0.00 | 0.00 | 50 | 1020.8 |
| 20260902223005 | 75 | 121 | 3.0 | 5.0 | 0.00 | 0.00 | 0.00 | 50 | 1020.8 |
| 20260902222505 | 76 | 94 | 3.0 | 11.0 | 0.00 | 0.00 | 0.00 | 49 | 1021.8 |
| 20260902222004 | 76 | 72 | 4.0 | 12.0 | 0.00 | 0.00 | 0.00 | 47 | 1021.8 |
| 20260902221504 | 76 | 70 | 6.0 | 13.0 | 0.00 | 0.00 | 0.00 | 48 | 1021.8 |
| 20260902221005 | 76 | 77 | 9.0 | 13.0 | 0.00 | 0.00 | 0.00 | 48 | 1020.8 |
| 20260902220505 | 76 | 71 | 7.0 | 14.0 | 0.00 | 0.00 | 0.00 | 49 | 1020.8 |
| 20260902220010 | 76 | 65 | 9.0 | 14.0 | 0.00 | 0.00 | 0.00 | 49 | 1020.8 |
| 20260902215505 | 76 | 64 | 8.0 | 13.0 | 0.00 | 0.00 | 0.00 | 50 | 1020.8 |
| 20260902215004 | 75 | 61 | 11.0 | 15.0 | 0.00 | 0.00 | 0.00 | 51 | 1020.8 |
| 20260902214504 | 75 | 52 | 11.0 | 15.0 | 0.00 | 0.00 | 0.00 | 53 | 1020.8 |
| 20260902214005 | 74 | 56 | 8.0 | 14.0 | 0.00 | 0.00 | 0.00 | 56 | 1020.8 |
| 20260902213505 | 73 | 75 | 4.0 | 13.0 | 0.00 | 0.00 | 0.00 | 59 | 1020.8 |
| 20260902212505 | 70 | 75 | 4.0 | 11.0 | 0.00 | 0.00 | 0.00 | 67 | 1020.8 |
| 20260902212006 | 69 | 100 | 2.0 | 6.0 | 0.00 | 0.00 | 0.00 | 71 | 1020.8 |
| 20260902211507 | 69 | 102 | 3.0 | 9.0 | 0.00 | 0.00 | 0.00 | 74 | 1020.8 |
| 20260902211007 | 69 | 86 | 5.0 | 9.0 | 0.00 | 0.00 | 0.00 | 75 | 1020.8 |
| 20260902210507 | 69 | 63 | 3.0 | 5.0 | 0.00 | 0.00 | 0.00 | 74 | 1020.8 |
| 20260902205006 | 69 | 90 | 0.0 | 2.0 | 0.00 | 0.00 | 0.00 | 73 | 1020.8 |
| 20260902204507 | 69 | 90 | 0.0 | 2.0 | 0.00 | 0.00 | 0.00 | 72 | 1020.8 |
| 20260902204007 | 69 | 90 | 0.0 | 2.0 | 0.00 | 0.00 | 0.00 | 72 | 1020.8 |
| 20260902203507 | 69 | 83 | 2.0 | 2.0 | 0.00 | 0.00 | 0.00 | 73 | 1020.8 |
| 20260902202507 | 70 | 42 | 2.0 | 2.0 | 0.00 | 0.00 | 0.00 | 71 | 1020.8 |
| 20260902202007 | 70 | 14 | 1.0 | 2.0 | 0.00 | 0.00 | 0.00 | 72 | 1020.8 |
| 20260902201506 | 70 | 1 | 0.0 | 2.0 | 0.00 | 0.00 | 0.00 | 71 | 1020.8 |
| 20260902201007 | 70 | 19 | 0.0 | 2.0 | 0.00 | 0.00 | 0.00 | 71 | 1020.8 |
| 20260902200506 | 70 | 86 | 1.0 | 2.0 | 0.00 | 0.00 | 0.00 | 70 | 1020.8 |
| 20260902195507 | 71 | 219 | 0.0 | 2.0 | 0.00 | 0.00 | 0.00 | 70 | 1020.8 |
| 20260902195006 | 71 | 293 | 0.0 | 2.0 | 0.00 | 0.00 | 0.00 | 70 | 1020.8 |
| 20260902194506 | 71 | 342 | 2.0 | 2.0 | 0.00 | 0.00 | 0.00 | 69 | 1020.8 |
| 20260902193506 | 71 | 66 | 2.0 | 3.0 | 0.00 | 0.00 | 0.00 | 68 | 1020.8 |
| 20260902193006 | 72 | 77 | 2.0 | 3.0 | 0.00 | 0.00 | 0.00 | 68 | 1020.8 |
| 20260902192506 | 72 | 347 | 2.0 | 3.0 | 0.00 | 0.00 | 0.00 | 68 | 1020.8 |
| 20260902192007 | 72 | 28 | 2.0 | 3.0 | 0.00 | 0.00 | 0.00 | 66 | 1020.8 |
| 20260902191507 | 72 | 107 | 2.0 | 3.0 | 0.00 | 0.00 | 0.00 | 65 | 1020.8 |
| 20260902191007 | 72 | 134 | 2.0 | 3.0 | 0.00 | 0.00 | 0.00 | 66 | 1019.8 |
| 20260902190507 | 72 | 265 | 2.0 | 3.0 | 0.00 | 0.00 | 0.00 | 66 | 1019.8 |
| 20260902190007 | 73 | 329 | 0.0 | 3.0 | 0.00 | 0.00 | 0.00 | 64 | 1019.8 |
| 20260902185507 | 73 | 70 | 0.0 | 5.0 | 0.00 | 0.00 | 0.00 | 63 | 1019.8 |
| 20260902184008 | 74 | 95 | 2.0 | 2.0 | 0.00 | 0.00 | 0.00 | 63 | 1019.8 |
| 20260902183507 | 74 | 90 | 0.0 | 2.0 | 0.00 | 0.00 | 0.00 | 62 | 1019.8 |
| 20260902183007 | 75 | 89 | 0.0 | 2.0 | 0.00 | 0.00 | 0.00 | 61 | 1019.8 |
| 20260902182506 | 75 | 70 | 1.0 | 2.0 | 0.00 | 0.00 | 0.00 | 61 | 1019.8 |
| 20260902182007 | 76 | 39 | 2.0 | 2.0 | 0.00 | 0.00 | 0.00 | 60 | 1019.8 |
| 20260902181507 | 76 | 90 | 2.0 | 2.0 | 0.00 | 0.00 | 0.00 | 59 | 1019.8 |